Location: Eggenstein-Leopoldshafen
(49.0901°N, 8.3998°E)
Time: 08:24:46
(UTC+00:00)

Daily predictions for brighter satellites

Satellite Brightness Start Highest point End
(mag) Time Altitude Azimuth Time Altitude Azimuth Time Altitude Azimuth
Cosmos 1814 Rocket 4.4 17:04:00 10° S 17:08:58 43° ESE 17:13:54 10° NE
SAR-Lupe-4 3.8 17:06:15 10° SE 17:09:40 45° ENE 17:13:07 10° N
ATLAS 3B R/B 4.1 17:02:33 10° NW 17:09:58 49° WSW 17:16:59 10° S
NOSS 7 (A) 4.5 17:08:35 10° NW 17:11:29 86° NE 17:14:35 10° SE
Cosmos 1125 Rocket 4.2 17:08:03 10° N 17:12:41 32° NE 17:17:18 10° ESE
IRS-1C 4.2 17:08:04 10° SSE 17:13:23 87° WSW 17:18:46 10° NNW
YAOGAN 1 2.8 17:16:44 10° SE 17:20:48 47° ENE 17:24:55 10° N
Cosmos 2123 Rocket 4.0 17:15:20 10° S 17:21:37 75° E 17:27:56 10° NNE
Okean 2 Rocket 3.5 17:18:29 10° N 17:22:37 38° ENE 17:26:42 10° SE
Cosmos 1900 4.4 17:17:44 10° SW 17:22:51 87° SE 17:27:55 10° NE
NOSS 3-3 (C) 4.5 17:18:41 10° S 17:23:13 32° ESE 17:28:26 10° NE
Spot 4 Rocket 4.2 17:21:12 10° SE 17:26:05 48° ENE 17:30:59 10° N
Okean 1 Rocket 3.6 17:22:01 10° N 17:26:06 35° ENE 17:30:07 10° SE
COSMOS 2428 2.7 17:22:31 10° NNW 17:28:14 66° ENE 17:33:55 10° SE
Cosmos 1980 4.2 17:26:34 10° NNW 17:31:50 37° NE 17:37:03 10° ESE
Sich 1 Rocket 4.1 17:27:53 10° N 17:32:11 39° ENE 17:36:27 10° SE
ARIANE 5 R/B 3.2 17:27:38 10° S 17:32:41 59° WSW 17:37:42 10° NNW
Cosmos 158 Rocket 3.8 17:32:07 10° S 17:36:55 66° ESE 17:41:45 10° NNE
Cosmos 2237 Rocket 2.7 17:32:10 10° NNW 17:37:28 38° NE 17:42:44 10° ESE
Aureole 3 Rocket 3.5 17:33:38 10° N 17:37:33 31° ENE 17:40:41 10° SE
ATLAS 5 CENTAUR R/B 2.5 17:34:49 10° NW 17:39:01 56° SW 17:44:13 10° SSE
Cosmos 192 4.2 17:34:25 10° NNW 17:39:18 72° ENE 17:44:10 10° SSE
SeaSat 1 3.3 17:34:56 10° SSE 17:39:42 54° WSW 17:44:32 10° NW
Cosmos 1378 Rocket 3.4 17:35:49 10° S 17:40:08 83° E 17:44:27 10° N
USA 234 4.4 17:34:39 10° SSE 17:40:50 44° SW 17:47:04 10° WNW
Resurs 01 Rocket 2.1 17:37:08 10° SE 17:41:10 37° ENE 17:45:14 10° N
SKYMED 2 3.5 17:38:43 10° NNE 17:43:07 81° ESE 17:47:27 10° SSW
GP-B 3.3 17:39:43 10° S 17:44:04 73° W 17:48:27 10° N
Cosmos 2219 Rocket 4.0 17:42:03 10° NW 17:47:07 36° WSW 17:52:07 10° S
COSMO-SKYMED 1 2.5 17:43:21 10° NNE 17:47:23 52° E 17:51:24 10° S
Cosmos 2228 4.3 17:45:45 10° NNE 17:48:43 18° ENE 17:49:16 18° ENE
Cosmos 2292 Rocket 3.8 17:46:52 10° SSW 17:49:39 44° WNW 17:52:34 10° N
PSLV R/B 3.4 17:46:54 10° SSE 17:50:58 61° ENE 17:55:01 10° N
NOSS 3-3 (A) 3.8 17:46:47 10° SSW 17:51:48 57° ESE 17:57:35 11° NE
Cosmos 2322 3.9 17:46:45 10° NNW 17:52:29 78° WSW 17:58:11 10° SSE
USA 306 1.1 17:51:32 10° WNW 17:54:25 85° SSW 17:55:03 39° ESE
Cosmos 2016 Rocket 4.4 17:48:20 10° NNW 17:54:31 70° W 18:00:46 10° S
Resurs 1-3 3.7 17:50:24 10° S 17:54:41 77° WSW 17:59:01 10° NNW
Cosmos 1025 Rocket 2.9 17:54:11 10° S 17:58:27 72° E 18:02:46 10° NNE
SJ-7 4.0 17:55:03 10° SSE 17:58:44 84° ENE 18:02:27 10° NNW
Cosmos 2285 Rocket 4.0 17:53:01 10° NNW 17:59:26 65° ENE 18:05:47 10° SE
SL-16 R/B 3.5 17:56:18 10° N 18:00:39 22° NE 18:02:27 19° ENE
Cosmos 2227 Rocket 3.5 18:00:22 10° SE 18:03:35 18° ESE 18:03:35 18° ESE
SJ-6B 2.8 18:05:12 14° SE 18:07:56 42° ENE 18:11:13 10° N
NOSS 3-4 (A) 3.9 18:03:15 10° NW 18:09:39 55° NE 18:15:10 19° ESE
SPOT 5 3.7 18:08:21 24° E 18:09:54 29° ENE 18:14:11 10° N
NOSS 3-4 (C) 3.9 18:03:30 10° NW 18:09:56 55° NE 18:15:23 19° ESE
Cosmos 2233 Rocket 4.3 18:04:14 10° NNW 18:10:29 71° W 18:16:45 10° S
CZ-2D R/B 4.0 18:08:46 10° S 18:12:36 57° W 18:16:32 10° NNW
Cosmos 1674 Rocket 4.0 18:10:21 10° SSW 18:14:41 63° WNW 18:19:05 10° N
Cosmos 1315 Rocket 4.4 18:12:57 10° NNW 18:16:27 36° W 18:19:56 10° SSW
Cosmos 1513 Rocket 4.5 18:12:12 10° N 18:18:25 62° ENE 18:24:41 10° SSE
Cosmos 1867 4.3 18:17:39 10° WSW 18:22:57 51° NW 18:27:56 12° NNE
ATLAS 2AS CENTAUR R/B 4.2 18:20:04 10° WNW 18:25:54 28° NNW 18:31:15 12° NE
CZ-4 R/B 3.2 18:28:09 15° NNE 18:28:09 15° NNE 18:29:07 10° N
CZ-4B R/B 4.2 18:26:45 25° NE 18:26:45 25° NE 18:30:38 10° N
Helios 1A Rocket 4.3 18:28:45 18° SSE 18:28:45 18° SSE 18:29:45 10° S
Lacrosse 5 rocket 2.0 18:23:48 10° W 18:27:06 37° NNW 18:28:21 28° NNE
Atlas Centaur 2 4.5 18:23:33 10° SSW 18:27:22 15° S 18:30:53 10° SSE
Meteor 1-31 Rocket 4.1 18:32:59 22° NNE 18:32:59 22° NNE 18:34:29 10° N
CZ-4C R/B 2.0 18:28:07 10° SW 18:32:24 69° NW 18:36:09 20° NE
IRAS Rocket 4.2 18:28:56 10° SSE 18:34:33 89° WSW 18:40:13 10° NNW
CARTOSAT-1 4.4 18:30:38 10° S 18:34:42 50° W 18:38:49 10° NNW
CRYOSAT 2 4.3 18:32:45 10° N 18:37:41 88° E 18:42:34 10° S
USA 267 3.9 18:41:48 24° NE 18:45:32 48° N 18:51:45 10° W
Cosmos 1464 Rocket 3.9 18:39:49 10° N 18:46:12 70° E 18:52:29 10° SSE
CSL-04 Debris 4.2 18:44:38 36° SE 18:46:39 57° ENE 18:51:59 10° N
ERS-1 Rocket 4.2 18:48:48 26° NNE 18:48:48 26° NNE 18:51:35 10° N
Cosmos 2297 Rocket 2.1 18:42:53 10° SSW 18:48:33 85° ESE 18:52:37 20° NNE
Cosmos 1607 4.5 18:43:18 10° WSW 18:49:18 55° NW 18:54:10 16° NNE
Cosmos 1570 Rocket 3.9 18:44:16 10° SSW 18:49:32 77° ESE 18:52:48 24° NNE
CSL-04 Rocket 3.5 18:47:26 35° SE 18:49:34 64° ENE 18:54:48 10° N
Cosmos 2344 3.9 18:43:46 10° S 18:50:51 36° ESE 18:51:12 36° ESE
BREEZE-M DEB (TANK) 4.4 18:46:54 10° WNW 18:50:53 65° SSW 18:56:52 26° SE
Cosmos 1455 Rocket 3.4 18:47:30 10° NNW 18:51:46 64° W 18:56:00 10° S
Cosmos 1975 Rocket 3.9 18:47:59 10° S 18:50:38 35° SSE 18:50:38 35° SSE
DNEPR-1 R/B 4.0 18:48:48 10° NW 18:53:32 61° NE 18:54:12 56° E
PAYLOAD B 4.2 19:05:27 59° ENE 19:05:33 59° ENE 19:11:04 10° N
Cosmos 2208 Rocket 3.8 19:01:30 10° SSW 19:06:43 78° ESE 19:07:29 64° NE
Terra 3.6 19:11:53 20° N 19:11:53 20° N 19:13:28 10° N
NOSS 3-3 (C) 4.3 19:08:23 10° WSW 19:13:39 57° NW 19:16:44 29° NNE
Resurs 01 Rocket 3.7 19:13:55 10° SSW 19:17:37 26° W 19:21:21 10° NW
Cosmos 2237 Rocket 3.2 19:16:15 10° NW 19:21:36 44° WSW 19:25:52 16° S
Cosmos 44 Rocket 4.0 19:17:54 10° SSW 19:21:20 46° SSW 19:21:20 46° SSW
Cosmos 773 Rocket 4.1 19:18:49 10° SSW 19:24:05 74° WNW 19:25:06 57° N
Cosmos 2228 3.8 19:21:56 10° NNW 19:25:37 47° WNW 19:25:37 47° WNW
Orbus 7S? 4.2 19:21:54 10° WNW 19:28:58 62° WSW 19:28:58 62° WSW
Cosmos 2150 Rocket 4.5 19:28:26 10° NNW 19:33:29 56° WSW 19:33:58 53° SW
Cosmos 2298 Rocket 4.4 19:29:02 10° NNW 19:34:14 59° WSW 19:34:43 57° SW
SL-16 R/B 2.6 19:39:51 10° NNW 19:44:20 57° NNW 19:44:20 57° NNW
Cosmos 2227 Rocket 3.0 19:41:51 10° SSW 19:45:30 42° SW 19:45:30 42° SW
SPOT 5 3.9 19:47:22 42° WSW 19:47:38 43° W 19:52:25 10° NNW
CZ-4 R/B 4.4 20:03:09 10° NW 20:03:09 10° NW 20:03:12 10° NW
Lacrosse 5 rocket 4.4 20:01:44 10° NW 20:01:48 10° NW 20:01:48 10° NW
CZ-4B R/B 4.4 20:08:36 36° NW 20:08:36 36° NW 20:11:52 10° NNW
BREEZE-M DEB (TANK) 4.1 19:57:26 10° W 20:10:46 63° SW 20:10:46 63° SW
ATLAS 2AS CENTAUR R/B 4.2 20:13:32 10° NW 20:18:40 25° N 20:18:40 25° N
CZ-4C R/B 4.0 20:17:41 10° WNW 20:21:07 24° NNW 20:21:07 24° NNW
USA 267 4.1 20:29:08 43° NNW 20:29:08 43° NNW 20:34:06 10° WNW
Cosmos 2297 Rocket 4.2 20:28:53 10° W 20:33:20 23° NW 20:34:29 21° NNW
